[[{"header":{"parameterUnit":"m.s-1","parameterCategory":1,"la1":30.2991,"la2":30.254,"lo1":-89.0895,"lo2":-89.0444,"dx":0.0017,"dy":0.0017,"nx":28,"ny":28,"refTime":"2023-02-06T15:00:00:Z","depth":0,"parameterNumber":2,"parameterNumberName":"U-component_of_WINDS"},"data":[0,0,0,0,0,0,0,0,0,0,0,0,0,0,0,0,0,0,0,0,0,0,0,0,0,0,0,0,0,0,0,0,0,0,0,0,0,0,0,0,0,0,0,0,0,0,0,0,0,0,0,0,0,0,0,0,0,0,-3.6065,-3.6066,0,-3.6182,-3.6184,-3.6185,-3.6165,-3.6163,-3.6161,-3.6159,-3.6281,-3.6286,-3.6291,0,0,0,0,0,0,0,0,0,0,0,0,0,-3.5825,-3.5829,-3.6065,-3.6066,-3.6068,-3.6182,-3.6184,-3.6185,-3.6165,-3.6163,-3.616,-3.6158,-3.6279,-3.6285,-3.6291,0,0,0,0,0,0,0,0,0,0,0,0,0,-3.5934,-3.5831,-3.6064,-3.6071,-3.6073,-3.6182,-3.6184,-3.6186,-3.6166,-3.6162,-3.6159,-3.6156,-3.6277,-3.6285,-3.6292,-3.6402,0,0,-3.6316,-3.6319,0,0,0,0,0,0,0,0,-3.5928,-3.5943,-3.6069,-3.6071,-3.6073,-3.6156,-3.6144,-3.6259,-3.6166,-3.6131,-3.6159,-3.6155,-3.6242,-3.6252,-3.6281,-3.6408,-3.6413,-3.6317,-3.6322,-3.6325,-3.6327,0,0,0,0,0,0,0,-3.5921,-3.5938,-3.6111,-3.6071,-3.6073,-3.6069,-3.6081,-3.6166,-3.6202,-3.6133,-3.6132,-3.6146,-3.6242,-3.6274,-3.6284,-3.6415,-3.6317,-3.6323,-3.6328,-3.6331,-3.6639,-3.6643,0,0,0,0,0,0,-3.5911,-3.5932,-3.6108,-3.6115,-3.5991,-3.6076,-3.609,-3.6132,-3.6201,-3.6209,-3.6149,-3.6145,-3.6262,-3.6275,-3.6288,-3.6422,-3.6325,-3.6332,-3.6337,-3.6636,-3.664,-3.6644,0,0,0,0,0,0,-3.5906,-3.5926,-3.6103,-3.6023,-3.6045,-3.6083,-3.6132,-3.6136,-3.6168,-3.6213,-3.6219,-3.6174,-3.626,-3.6277,-3.6374,-3.6426,-3.6336,-3.6343,-3.6632,-3.6637,-3.6642,-3.6689,0,0,0,0,0,0,-3.5899,-3.5925,-3.5966,-3.6024,-3.605,-3.6186,-3.6135,-3.6141,-3.6181,-3.6177,-3.6238,-3.6245,-3.6259,-3.6363,-3.6382,-3.6435,-3.6349,-3.6627,-3.6634,-3.664,-3.6683,-3.6696,-3.6706,0,0,0,0,0,-3.589,-3.5975,-3.5968,-3.599,-3.6102,-3.6189,-3.6204,-3.6217,-3.6185,-3.6227,-3.6257,-3.6243,-3.6417,-3.6373,-3.6394,-3.645,-3.6624,-3.6632,-3.664,-3.6678,-3.6693,-3.6706,0,0,0,0,0,0,-3.5923,-3.5983,-3.5976,-3.6082,-3.6131,-3.6185,-3.6239,-3.6232,-3.6291,-3.6285,-3.63,-3.6314,-3.6413,-3.6441,-3.6391,-3.6561,-3.6516,-3.6529,-3.6538,-3.6553,-3.6564,-3.6554,-3.6355,0,0,0,0,0,-3.5942,-3.6007,-3.6056,-3.6145,-3.617,-3.6201,-3.6239,-3.6245,-3.6296,-3.6317,-3.6353,-3.6404,-3.647,-3.6513,-3.6576,-3.6688,-3.6701,-3.6737,-3.6748,-3.6758,-3.6768,-3.683,-3.6846,-3.667,-3.667,-3.667,0,0,-3.5983,-3.6024,-3.6064,-3.6153,-3.6191,-3.6259,-3.6218,-3.6291,-3.6342,-3.6328,-3.6422,-3.6451,-3.6508,-3.6613,-3.6661,-3.664,-3.682,-3.6768,-3.6775,-3.678,-3.6839,-3.6856,-3.6871,-3.6675,-3.6674,-3.6673,0,0,-3.6091,-3.6129,-3.6207,-3.6247,-3.6305,-3.6325,-3.6344,-3.6401,-3.6419,-3.6513,-3.6505,-3.6566,-3.6679,-3.672,-3.6756,-3.6883,-3.6873,-3.6903,-3.6962,-3.7022,-3.7036,-3.7048,-3.7093,-3.7109,-3.6914,-3.6914,-3.6914,0,-3.6135,-3.6236,-3.6248,-3.6323,-3.6362,-3.6354,-3.6433,-3.6471,-3.6548,-3.6576,-3.6551,-3.6694,-3.6732,-3.6846,-3.6877,-3.6907,-3.6929,-3.6895,-3.7033,-3.7045,-3.7057,-3.71,-3.7117,-3.6917,-3.6917,-3.6916,-3.6916,0,-3.6286,-3.6356,-3.6413,-3.6486,-3.6533,-3.6609,-3.6635,-3.668,-3.6683,-3.6706,-3.6803,-3.6848,-3.6921,-3.6949,-3.6952,-3.7065,-3.705,-3.7029,-3.6984,-3.7077,-3.7117,-3.7134,-3.6922,-3.692,-3.6919,-3.6919,0,0,-3.6417,-3.6497,-3.6518,-3.6551,-3.6616,-3.6671,-3.6748,-3.6819,-3.6858,-3.6911,-3.6976,-3.7073,-3.7055,-3.7096,-3.7104,-3.7157,-3.7254,-3.713,-3.7131,-3.7151,-3.7381,-3.7395,-3.7414,-3.7248,-3.7252,-3.7254,-3.7376,0,-3.6531,-3.6666,-3.668,-3.6801,-3.6866,-3.686,-3.6927,-3.6975,-3.6999,-3.7058,-3.7085,-3.7154,-3.7124,-3.7149,-3.7201,-3.7231,-3.73,-3.7223,-3.7309,-3.7312,-3.7294,-3.7435,-3.7451,-3.7563,-3.7392,-3.7394,-3.7396,0,-3.6682,-3.6739,-3.6867,-3.6923,-3.6951,-3.7011,-3.7077,-3.7134,-3.7189,-3.7203,-3.7249,-3.7251,-3.7331,-3.7285,-3.7396,-3.7343,-3.738,-3.74,-3.7405,-3.7413,-3.7359,-3.7446,-3.7599,-3.7616,-3.7422,-3.742,-3.7418,0,-3.6764,-3.6873,-3.6964,-3.6993,-3.7061,-3.7103,-3.7134,-3.7185,-3.7227,-3.7286,-3.7313,-3.7381,-3.7417,-3.747,-3.7491,-3.7455,-3.7601,-3.7556,-3.7615,-3.7615,-3.7645,-3.7643,-3.7805,-3.7671,-3.767,-3.767,-3.767,0,-3.6889,-3.6967,-3.7001,-3.7057,-3.7145,-3.7161,-3.7248,-3.7277,-3.7323,-3.7384,-3.7384,-3.7441,-3.7465,-3.7528,-3.7545,-3.7634,-3.7651,-3.7665,-3.7668,-3.7665,-3.7663,-3.7688,-3.7681,-3.7674,-3.7673,-3.7673,-3.7672,0,-3.6995,-3.7021,-3.7119,-3.7176,-3.7192,-3.7254,-3.7303,-3.7357,-3.7381,-3.7459,-3.7479,-3.7516,-3.759,-3.7616,-3.7705,-3.7716,-3.7821,-3.7818,-3.7802,-3.7802,-3.786,-3.7854,-3.8044,-3.807,-3.7918,-3.792,-3.7921,0,-3.7072,-3.7132,-3.7196,-3.7237,-3.7269,-3.7335,-3.7378,-3.7397,-3.7442,-3.7509,-3.7556,-3.7628,-3.7687,-3.7805,-3.7841,-3.791,-3.7908,-3.797,-3.7918,-3.7913,-3.7909,-3.7904,-3.7911,-3.7979,-3.7981,-3.7982,-3.7983,0,-3.7208,-3.7218,-3.7279,-3.7346,-3.7397,-3.745,-3.7502,-3.7536,-3.7564,-3.7614,-3.7689,-3.7735,-3.7826,-3.7899,-3.7969,-3.8001,-3.7997,-3.7999,-3.8017,-3.8013,-3.8001,-3.8008,-3.7827,-3.7995,-3.7993,-3.7993,-3.7992,-3.7991,-3.7301,-3.7354,-3.7407,-3.7476,-3.7517,-3.7566,-3.762,-3.7651,-3.7713,-3.7788,-3.7797,-3.7877,-3.7932,-3.8026,-3.8062,-3.8126,-3.8109,-3.8134,-3.814,-3.8146,-3.815,-3.7992,-3.8139,-3.8138,-3.8138,-3.8138,-3.8138,0,-3.7436,-3.747,-3.7533,-3.7606,-3.766,-3.7652,-3.7709,-3.7755,-3.7826,-3.7877,-3.7935,-3.8021,-3.8092,-3.8134,-3.8205,-3.8249,-3.8249,-3.8267,-3.8263,-3.8271,-3.8161,-3.8139,-3.8265,-3.8265,-3.8265,-3.8265,-3.8265,-3.8265,-3.7512,-3.7602,-3.7618,-3.7729,-3.7763,-3.7841,-3.7875,-3.792,-3.796,-3.8057,-3.8115,-3.8142,-3.819,-3.8265,-3.833,-3.834,-3.8366,-3.8386,-3.8395,-3.8292,-3.8278,-3.8266,-3.8245,-3.8392,-3.8392,-3.8499,-3.85,-3.8501]},{"header":{"parameterUnit":"m.s-1","parameterCategory":1,"la1":30.2991,"la2":30.254,"lo1":-89.0895,"lo2":-89.0444,"dx":0.0017,"dy":0.0017,"nx":28,"ny":28,"refTime":"2023-02-06T15:00:00:Z","depth":0,"parameterNumber":3,"parameterNumberName":"V-component_of_WINDS"},"data":[0,0,0,0,0,0,0,0,0,0,0,0,0,0,0,0,0,0,0,0,0,0,0,0,0,0,0,0,0,0,0,0,0,0,0,0,0,0,0,0,0,0,0,0,0,0,0,0,0,0,0,0,0,0,0,0,0,0,1.5877,1.5878,0,1.5963,1.5964,1.5965,1.5977,1.5976,1.5976,1.5975,1.6063,1.6066,1.6069,0,0,0,0,0,0,0,0,0,0,0,0,0,1.5728,1.573,1.5877,1.5878,1.588,1.5962,1.5964,1.5965,1.5977,1.5976,1.5975,1.5975,1.6062,1.6065,1.6069,0,0,0,0,0,0,0,0,0,0,0,0,0,1.5801,1.5731,1.5877,1.5896,1.5898,1.5962,1.5964,1.5965,1.5978,1.5976,1.5975,1.5974,1.6061,1.6065,1.607,1.6121,0,0,1.6084,1.6086,0,0,0,0,0,0,0,0,1.5796,1.5806,1.5892,1.5895,1.5898,1.5958,1.5943,1.6017,1.5978,1.5947,1.5975,1.5974,1.6029,1.6036,1.6055,1.6125,1.6129,1.6084,1.6087,1.6089,1.609,0,0,0,0,0,0,0,1.5791,1.5803,1.5911,1.5893,1.5897,1.5901,1.591,1.5957,1.5994,1.595,1.5951,1.5961,1.603,1.605,1.6057,1.613,1.6084,1.6088,1.6091,1.6093,1.625,1.6252,0,0,0,0,0,0,1.5783,1.5798,1.5908,1.5914,1.5843,1.5904,1.5914,1.594,1.5993,1.6,1.5962,1.5961,1.6043,1.6051,1.606,1.6126,1.6089,1.6093,1.6096,1.6249,1.6251,1.6252,0,0,0,0,0,0,1.578,1.5792,1.5905,1.5856,1.5871,1.5908,1.5937,1.5942,1.5962,1.6002,1.6009,1.5975,1.6042,1.6053,1.6106,1.6129,1.6095,1.6099,1.6247,1.6249,1.6251,1.6256,0,0,0,0,0,0,1.5775,1.5791,1.5811,1.5857,1.5874,1.5949,1.5938,1.5945,1.597,1.597,1.6017,1.6023,1.6042,1.6099,1.6111,1.6135,1.6103,1.6245,1.6248,1.6251,1.6254,1.6258,1.6262,0,0,0,0,0,1.577,1.5808,1.5811,1.5825,1.5898,1.5951,1.596,1.5981,1.5972,1.5992,1.6018,1.6022,1.6124,1.6105,1.6118,1.6143,1.6244,1.6247,1.625,1.6253,1.6258,1.6262,0,0,0,0,0,0,1.5763,1.5814,1.5819,1.5873,1.5908,1.5953,1.5979,1.5985,1.6023,1.6022,1.6046,1.6057,1.6109,1.6131,1.6108,1.6197,1.6183,1.6189,1.6181,1.6186,1.6189,1.6183,1.6107,0,0,0,0,0,1.5768,1.5806,1.5849,1.5893,1.591,1.5941,1.5965,1.5978,1.6015,1.6029,1.6059,1.6095,1.6136,1.6162,1.6201,1.6257,1.6269,1.6281,1.6285,1.6288,1.6293,1.6327,1.6334,1.6263,1.6263,1.6263,0,0,1.5779,1.5812,1.5834,1.5892,1.5921,1.596,1.5954,1.5995,1.6025,1.6036,1.6088,1.6111,1.6153,1.6209,1.6234,1.6229,1.6316,1.6292,1.6294,1.6298,1.6331,1.6338,1.6344,1.6265,1.6264,1.6264,0,0,1.5819,1.5847,1.5887,1.5916,1.5959,1.598,1.599,1.6035,1.6051,1.6104,1.6113,1.6149,1.6218,1.6248,1.6272,1.6326,1.6331,1.6338,1.6358,1.639,1.6396,1.6401,1.6422,1.6429,1.6342,1.6342,1.6342,0,1.5827,1.5886,1.5907,1.5949,1.5976,1.5988,1.603,1.6057,1.611,1.6129,1.6121,1.6209,1.6238,1.6302,1.6315,1.6334,1.6347,1.6333,1.6393,1.6399,1.6404,1.6424,1.6432,1.6343,1.6343,1.6343,1.6343,0,1.5895,1.5936,1.5964,1.6016,1.6045,1.6087,1.6116,1.6143,1.6154,1.6176,1.6231,1.6266,1.6314,1.633,1.634,1.6396,1.6391,1.6388,1.6375,1.6411,1.643,1.6438,1.6344,1.6344,1.6344,1.6343,0,0,1.5933,1.5997,1.6007,1.6032,1.6081,1.6114,1.6157,1.6204,1.6228,1.6265,1.6302,1.6361,1.6359,1.6387,1.6401,1.643,1.6472,1.6424,1.6425,1.6433,1.6538,1.6541,1.6549,1.6476,1.6478,1.6479,1.6535,0,1.5979,1.6057,1.6078,1.6143,1.6183,1.6196,1.6234,1.6268,1.6291,1.6328,1.6352,1.6394,1.6388,1.6405,1.6434,1.6461,1.6494,1.6457,1.6513,1.6515,1.6503,1.6559,1.6562,1.6614,1.6543,1.6544,1.6545,0,1.6044,1.6084,1.6153,1.6199,1.6217,1.625,1.6296,1.6331,1.6372,1.6386,1.6418,1.643,1.6477,1.646,1.6526,1.6501,1.6525,1.6542,1.6544,1.6551,1.6533,1.657,1.663,1.6639,1.6557,1.6556,1.6555,0,1.6067,1.6137,1.6189,1.6209,1.6264,1.6288,1.6311,1.6351,1.6378,1.6418,1.6437,1.6482,1.6507,1.6541,1.6566,1.6552,1.663,1.6616,1.6645,1.6644,1.6662,1.6661,1.6729,1.6675,1.6674,1.6674,1.6674,0,1.6118,1.6161,1.62,1.6232,1.6281,1.6305,1.6353,1.6377,1.6412,1.645,1.6463,1.6498,1.6528,1.6567,1.6587,1.664,1.665,1.6664,1.6669,1.6664,1.6662,1.6681,1.6679,1.6676,1.6676,1.6675,1.6675,0,1.6152,1.618,1.6237,1.6285,1.6298,1.6332,1.6373,1.6405,1.6428,1.6476,1.6488,1.6524,1.6572,1.66,1.6659,1.6672,1.6731,1.6734,1.6718,1.672,1.6749,1.6746,1.6833,1.6846,1.6781,1.6781,1.6782,0,1.6184,1.6217,1.6269,1.6295,1.6319,1.6361,1.639,1.6415,1.6445,1.6495,1.6521,1.6569,1.6609,1.6684,1.6717,1.6763,1.6768,1.6795,1.6775,1.6769,1.677,1.6769,1.6773,1.6798,1.6799,1.6799,1.68,0,1.6237,1.625,1.629,1.6337,1.637,1.6408,1.6445,1.6466,1.6498,1.6531,1.658,1.6611,1.6672,1.6721,1.677,1.6795,1.6804,1.6806,1.6815,1.6811,1.6801,1.6809,1.6729,1.6804,1.6804,1.6803,1.6803,1.6803,1.6272,1.6303,1.6345,1.6391,1.6422,1.6457,1.649,1.6517,1.6559,1.6611,1.6624,1.6675,1.6717,1.6784,1.6811,1.6852,1.6848,1.6861,1.6865,1.6868,1.687,1.6794,1.6861,1.6861,1.6861,1.6861,1.6861,0,1.6328,1.6356,1.6397,1.645,1.6486,1.6491,1.6533,1.6563,1.6609,1.6646,1.6686,1.6743,1.6791,1.6827,1.6876,1.6903,1.6908,1.6915,1.6914,1.692,1.687,1.6858,1.691,1.691,1.691,1.691,1.691,1.691,1.6361,1.6415,1.6433,1.6503,1.6531,1.6582,1.6606,1.6639,1.6669,1.6733,1.6773,1.6796,1.6834,1.6886,1.693,1.694,1.6958,1.6965,1.6975,1.6928,1.6923,1.6918,1.6907,1.6968,1.6968,1.7022,1.7022,1.7023]}]]